TimeCDT,TemperatureF,Dew PointF,Humidity,Sea Level PressureIn,VisibilityMPH,Wind Direction,Wind SpeedMPH,Gust SpeedMPH,PrecipitationIn,Events,Conditions,WindDirDegrees,DateUTC
12:52 AM,37.0,26.1,65,30.07,9.0,NE,12.7,-,N/A,,Overcast,40,2013-03-17 05:52:00
1:52 AM,36.0,26.1,67,30.08,9.0,NE,9.2,-,N/A,,Overcast,40,2013-03-17 06:52:00
2:52 AM,36.0,27.0,70,30.08,10.0,NE,10.4,-,N/A,,Overcast,50,2013-03-17 07:52:00
3:52 AM,35.1,26.1,70,30.06,10.0,ENE,12.7,-,N/A,,Overcast,60,2013-03-17 08:52:00
4:52 AM,35.1,26.1,70,30.03,9.0,ENE,13.8,-,0.00,,Overcast,70,2013-03-17 09:52:00
5:52 AM,34.0,26.1,73,30.02,10.0,ENE,10.4,-,N/A,,Overcast,70,2013-03-17 10:52:00
6:52 AM,34.0,27.0,75,30.04,7.0,East,12.7,-,0.00,Rain,Light Rain,80,2013-03-17 11:52:00
7:52 AM,33.1,27.0,78,30.04,6.0,ENE,10.4,-,0.00,,Haze,70,2013-03-17 12:52:00
8:52 AM,33.1,27.0,78,30.04,7.0,ENE,9.2,-,N/A,,Overcast,60,2013-03-17 13:52:00
9:52 AM,34.0,28.0,79,30.04,5.0,East,9.2,-,N/A,,Haze,90,2013-03-17 14:52:00
10:52 AM,36.0,28.9,76,30.02,5.0,East,12.7,-,N/A,,Haze,90,2013-03-17 15:52:00
11:52 AM,37.0,28.9,73,30.00,5.0,ENE,15.0,-,N/A,,Haze,70,2013-03-17 16:52:00
12:52 PM,37.9,28.9,70,29.97,5.0,East,13.8,-,N/A,,Haze,80,2013-03-17 17:52:00
1:52 PM,37.0,28.9,73,29.93,5.0,East,15.0,-,N/A,,Haze,90,2013-03-17 18:52:00
2:52 PM,36.0,30.9,82,29.89,3.0,East,10.4,-,0.01,Rain,Light Rain,90,2013-03-17 19:52:00
3:02 PM,35.6,30.2,81,29.87,3.0,East,11.5,-,0.00,Rain,Light Rain,90,2013-03-17 20:02:00
3:52 PM,36.0,32.0,86,29.86,2.5,East,11.5,-,0.02,Rain,Light Rain,80,2013-03-17 20:52:00
4:13 PM,35.6,32.0,87,29.84,3.0,ENE,8.1,-,0.01,,Overcast,70,2013-03-17 21:13:00
4:22 PM,35.6,32.0,87,29.84,2.0,ENE,9.2,-,0.02,Rain,Light Rain,70,2013-03-17 21:22:00
4:30 PM,35.6,32.0,87,29.84,1.8,ENE,10.4,-,0.03,Rain,Light Rain,70,2013-03-17 21:30:00
4:52 PM,35.1,32.0,89,29.85,1.2,ENE,9.2,-,0.08,Rain,Rain,70,2013-03-17 21:52:00
5:03 PM,35.6,32.0,87,29.82,1.5,ENE,11.5,-,0.02,Rain,Light Rain,70,2013-03-17 22:03:00
5:15 PM,35.6,32.0,87,29.81,1.5,East,9.2,-,0.04,Rain,Light Rain,80,2013-03-17 22:15:00
5:32 PM,35.6,32.0,87,29.80,1.8,East,11.5,-,0.06,Rain,Light Rain,80,2013-03-17 22:32:00
5:52 PM,35.1,32.0,89,29.81,1.2,East,11.5,-,0.07,Rain,Light Rain,80,2013-03-17 22:52:00
6:16 PM,35.6,32.0,87,29.80,1.2,East,10.4,-,0.00,Rain,Light Rain,90,2013-03-17 23:16:00
6:52 PM,35.1,32.0,89,29.81,1.0,East,9.2,-,0.00,,Overcast,90,2013-03-17 23:52:00
7:36 PM,33.8,32.0,93,29.78,2.5,East,11.5,-,N/A,,Overcast,100,2013-03-18 00:36:00
7:52 PM,34.0,32.0,92,29.80,2.5,East,10.4,-,N/A,,Overcast,100,2013-03-18 00:52:00
8:06 PM,35.6,32.0,87,29.77,3.0,East,11.5,-,N/A,,Overcast,90,2013-03-18 01:06:00
8:52 PM,35.1,32.0,89,29.81,5.0,East,5.8,-,0.00,,Overcast,80,2013-03-18 01:52:00
9:09 PM,35.6,32.0,87,29.79,6.0,ENE,3.5,-,N/A,,Overcast,60,2013-03-18 02:09:00
9:52 PM,35.1,32.0,89,29.79,5.0,East,10.4,-,N/A,,Overcast,100,2013-03-18 02:52:00
10:52 PM,35.1,33.1,92,29.79,6.0,East,5.8,-,N/A,,Overcast,90,2013-03-18 03:52:00
11:52 PM,36.0,32.0,86,29.81,6.0,Calm,Calm,-,N/A,,Overcast,0,2013-03-18 04:52:00